Regional Weather Roundup
Issued by NWS

Home | Current Version | Previous Version | Text Only | Print | Product List | Glossary Off
Versions: 1 2 3 4 5 6 7 8 9 10 11 12 13 14 15 16 17 18 19 20 21 22 23 24 25 26 27 28 29 30 31 32 33 34 35 36 37 38 39 40 41 42 43 44

000
ASUS45 KBOU 210407
RWRCO

WEATHER ROUNDUP FOR COLORADO
NATIONAL WEATHER SERVICE DENVER/BOULDER CO
1000 PM MDT MON OCT 20 2014

NOTE: "FAIR" INDICATES FEW OR NO CLOUDS BELOW 12000 FEET WITH NO
SIGNIFICANT WEATHER AND/OR OBSTRUCTIONS TO VISIBILITY.

COZ001>005-013-030-031-210500-
...NORTHWEST COLORADO...

CITY           SKY/WX    TMP DP  RH WIND       PRES   REMARKS
CRAIG          CLEAR     40  34  79 CALM      30.13R
HAYDEN         CLEAR     46  36  66 SE8       30.14S
MEEKER         CLEAR     46  36  68 E3        30.14R
MOUNT WERNER   NOT AVBL
STEAMBOAT SPGS CLEAR     47  35  64 E3        30.16S
WALDEN         CLEAR     36  30  80 SE8       30.22R
$$

COZ006>008-011-210500-
...WEST CENTRAL VALLEYS...

CITY           SKY/WX    TMP DP  RH WIND       PRES   REMARKS
GRAND JUNCTION PTCLDY    56  37  49 E6        30.05R
MONTROSE       PTCLDY    58  38  47 SE14      30.14S
EAGLE          CLOUDY    52  39  62 E6        30.18S
RIFLE          MOCLDY    51  38  60 N3        30.11R
DELTA          MOCLDY    59  41  51 NE6       30.10R
NUCLA          CLOUDY    55  37  50 E10       30.17S
$$

COZ017>023-064>068-210500-
...SOUTHWEST COLORADO...

CITY           SKY/WX    TMP DP  RH WIND       PRES   REMARKS
DURANGO        PTCLDY    49  43  80 N5        30.20R
CORTEZ         CLEAR     51  41  68 NE8       30.14R
PAGOSA SPRINGS PTCLDY    45  39  79 CALM      30.27R
TELLURIDE      PTCLDY    46  35  63 E5        30.32S
WOLF CREEK PAS PTCLDY    34  30  86 SW9       30.46S WCI  26
$$

COZ009-010-012-014-032>034-037-058>063-210500-
...CENTRAL COLORADO...

CITY           SKY/WX    TMP DP  RH WIND       PRES   REMARKS
ASPEN          PTCLDY    44  34  67 SW7       30.23S
BUENA VISTA    MOCLDY    42  35  75 W6        30.26S
COPPER MTN     PTCLDY    41  28  60 S20       30.45R
BERTHOUD PASS  FAIR      32  30  93 MISG      30.48S
COTTONWOOD PAS PTCLDY    50  32  50 CALM      30.35S
GUNNISON       PTCLDY    45  30  57 N10       30.27R
KREMMLING      PTCLDY    45  32  61 CALM        N/A
LEADVILLE      PTCLDY    40  28  62 CALM      30.34R
SALIDA         CLEAR     51  35  53 SW6       30.32R
SUNLIGHT       CLEAR     43  34  70 CALM      30.39S
WILKERSON PASS NOT AVBL
$$

COZ069>075-210500-
...SAN LUIS VALLEY/SANGRE DE CRISTO MOUNTAINS...

CITY           SKY/WX    TMP DP  RH WIND       PRES   REMARKS
ALAMOSA        MOCLDY    46  34  62 CALM      30.25R
LA VETA PASS   CLEAR     43  30  61 S5        30.38S
SAGUACHE       MOCLDY    48  34  57 NW8       30.27R
$$

COZ035-036-038>040-210500-
...NORTHERN COLORADO FRONT RANGE...

CITY           SKY/WX    TMP DP  RH WIND       PRES   REMARKS
DENVER INTL AP PTCLDY    60  37  42 S22G30    30.08R
DMNS CITY PARK   N/A     62  34  35 S16       30.07S
AURORA         PTCLDY    59  37  44 S23       30.10S
FRONT RANGE AP NOT AVBL
ERIE MUNI ARPT PTCLDY    53  40  61 CALM      30.06R
BOULDER MUN AP PTCLDY    59  39  47 S3        30.06R
CENTENNIAL     PTCLDY    58  37  45 S14       30.12R
BROOMFIELD     PTCLDY    57  39  51 VRB3      30.09R
FORT COLLINS   CLEAR     55  39  54 CALM      30.06R
LONGMONT       MOCLDY    54  44  68 SW5       30.06S
$$

COZ041-046-047-076>085-087-088-210500-
...PIKES PEAK/PALMER DIVIDE AND SOUTHERN FOOTHILLS...

CITY           SKY/WX    TMP DP  RH WIND       PRES   REMARKS
COLO. SPRINGS  CLEAR     53  38  56 SE6       30.21S
A. F. ACADEMY  CLEAR     53  37  53 SE10      30.20F
ELLICOTT       CLEAR     52  40  63 S13       30.18F
FALCON         CLEAR     47  37  69 S7        30.24S
FORT CARSON    CLEAR     55  38  52 S6        30.18S
LIMON          CLEAR     47  40  76 S7        30.16R
MONUMENT HILL  CLEAR     50  36  57 S22G30    30.19S
TRINIDAD       CLEAR     56  41  57 SE3       30.19R
$$

COZ042>045-048>051-090-091-210500-
...NORTHEAST COLORADO...

CITY           SKY/WX    TMP DP  RH WIND       PRES   REMARKS
GREELEY ARPT   CLEAR     50  34  53 E7        30.05R
AKRON          CLEAR     57  42  57 S14       30.09S
BURLINGTON     CLEAR     54  39  57 S12       30.12S
WRAY           CLEAR     58  40  51 S5        30.09S
STERLING       CLEAR     54  41  62 S6        30.06S
HOLYOKE        CLEAR     54  39  58 S8        30.08S
FORT MORGAN    CLEAR     53  37  53 SE7       30.07S
$$

COZ086-089-092>099-210500-
...SOUTHEAST COLORADO...

CITY           SKY/WX    TMP DP  RH WIND       PRES   REMARKS
PUEBLO         CLEAR     56  41  57 E9        30.12R
LA JUNTA       CLEAR     56  43  61 SE7       30.12R
LAMAR          CLEAR     56  45  66 S12       30.10R
SPRINGFIELD      N/A     52  49  89 S8        30.15S
$$



USA.gov is the U.S. government's official web portal to all federal, state and local government web resources and services.